User: anonymous   Login
Location: Ladysmith
(45.4630°N, 91.1040°W)
Time: 23:14:23
(UTC-06:00)
Language:

SO-67 - Orbit

View from above orbital plane
View from above orbital plane
View from above satellite
View from above satellite

Ground track
Ground track

The orbit data is extracted from the following two-line orbital elements,

1 35870U 09049F   14329.80915299  .00016231  00000-0  46167-3 0  7287
2 35870 097.1487 346.1746 0001147 129.7906 315.7554 15.36213126288838
Epoch (UTC): 25 November 2014 19:25:10
Eccentricity: 0.0001147
inclination: 97.1487°
perigee height: 456 km
apogee height: 458 km
right ascension of ascending node: 346.1746°
argument of perigee: 129.7906°
revolutions per day: 15.36213126
mean anomaly at epoch: 315.7554°
orbit number at epoch: 28883

The dashed part of the orbit path shows where the satellite is in the earth's shadow,  

DLR